#timestamp,LO_Frequency,Hit,StdDev 
1611849615.0,286047003.5,N
1611849615.9,286047003.5,N
1611849635.8,286047008.6,Y
1611849655.6,286047006.3,P
1611849675.4,286047006.9,N
1611849695.3,286047007.1,N
1611849715.1,286047002.9,N
1611849735.8,286047004.2,N
1611849755.7,286047002.9,N
1611849775.5,286047004.3,N
1611849795.4,286047001.5,N
1611849815.2,286047003.5,N
1611849835.0,286047004.4,N
1611849835.9,286047004.4,N
1611849855.8,286047003.7,N
1611849875.6,286047007.0,Y
1611849895.4,286047003.6,P
1611849915.3,286047003.2,P
1611849935.1,286047001.7,P
1611849955.9,286047002.1,N
1611849975.7,286047002.7,N
1611849995.5,286046998.7,N
1611850015.4,286046996.6,N
1611850035.2,286047005.9,N
1611850055.1,286047002.9,N
1611850056.0,286047002.9,N
1611850075.8,286047007.0,N
1611850095.6,286047004.1,N
1611850115.5,286047001.6,N
1611850135.3,286047001.8,N
1611850155.1,286047002.9,N
1611850175.9,286047001.7,N
1611850195.7,286046998.2,N
1611850215.6,286047002.7,N
1611850235.4,286047000.9,N
1611850255.2,286047001.0,N
1611850275.1,286046999.4,N
1611850276.0,286046999.4,N
1611850295.8,286046996.6,N
1611850315.6,286046997.1,N
1611850335.5,286046997.3,N
1611850355.3,286046996.5,N
1611850375.2,286046994.9,N
1611850395.9,286046996.3,N
1611850415.7,286046993.6,N
1611850435.6,286046993.3,N
1611850455.4,286046995.3,N
1611850475.3,286046995.1,N
1611850495.1,286046998.5,N
1611850496.0,286046998.5,N
1611850515.8,286047002.2,N
1611850535.7,286047001.8,N
1611850555.5,286047003.0,N
1611850575.3,286047001.5,N
1611850595.2,286047000.2,N
1611850615.0,286046999.1,N
1611850615.9,286046999.1,N
1611850635.8,286046995.7,N
1611850655.6,286046994.9,N
1611850675.4,286046996.3,N
1611850695.3,286046995.3,N
1611850715.1,286046993.6,N
1611850735.8,286046993.5,N
1611850755.7,286046999.5,N
1611850775.5,286047004.3,N
1611850795.4,286046999.8,N
1611850815.2,286047000.2,N
1611850835.0,286046999.4,N
1611850835.9,286046999.4,N
1611850855.8,286046996.7,N
1611850875.6,286046999.0,N
1611850895.5,286046995.6,N
1611850915.3,286046996.0,N
1611850935.1,286046996.3,N
1611850955.9,286047011.9,Y
1611850975.7,286046996.6,P
1611850995.6,286047002.4,P
1611851015.4,286047005.2,N
1611851035.2,286047004.1,N
1611851055.1,286047003.4,N
1611851056.0,286047003.4,N
1611851075.8,286047004.4,N
1611851095.6,286047000.6,N
1611851115.5,286046998.8,N
1611851135.3,286046996.8,N
1611851155.2,286046995.5,N
1611851175.9,286046993.3,N
1611851195.7,286046993.8,N
1611851215.6,286046993.6,N
1611851235.4,286046990.5,N
1611851255.3,286046991.0,N
1611851275.1,286046992.4,N
1611851276.0,286046992.4,N
1611851295.8,286046992.2,N
1611851315.7,286046994.4,N
1611851335.5,286046994.5,N
1611851355.3,286046996.3,N
1611851375.2,286046996.1,N
1611851395.0,286046993.9,N
1611851395.9,286046993.9,N
1611851415.8,286046994.7,N
1611851435.6,286046993.3,N
1611851455.4,286046994.0,N
1611851475.3,286046993.3,N
1611851495.1,286046995.9,N
1611851515.9,286046996.1,N
1611851535.7,286046993.5,N
1611851555.5,286046994.5,N
1611851575.4,286046993.7,N
1611851595.2,286046994.7,N
1611851615.0,286046991.0,N
1611851615.9,286046986.3,Y
1611851635.8,286046997.6,P
1611851655.6,286046999.4,N
1611851675.5,286046998.1,N
1611851695.3,286047000.7,N
1611851715.1,286047001.7,N
1611851735.9,286047001.4,N
1611851755.7,286047003.9,N
1611851775.6,286047004.2,N
1611851795.4,286047005.8,N
1611851815.2,286047004.4,N
1611851835.1,286047001.5,N
1611851836.0,286047001.5,N
1611851855.8,286047002.5,N
1611851875.6,286047002.1,N
1611851895.5,286047002.0,N
1611851915.3,286047001.6,N
1611851935.2,286047002.2,N
1611851955.9,286047002.2,N
1611851975.7,286047000.1,N
1611851995.6,286047002.6,N
1611852015.4,286047000.2,N
1611852035.2,286047001.8,N
1611852055.1,286047001.6,N
1611852056.0,286047001.6,N
1611852075.8,286047001.8,N
1611852095.7,286047001.5,N
1611852115.5,286047002.3,N
1611852135.3,286047001.9,N
1611852155.2,286047001.4,N
1611852175.0,286047002.9,N
1611852175.9,286047002.9,N
1611852195.8,286047004.0,N
1611852215.6,286047001.4,N
1611852235.4,286047004.3,Y
1611852255.3,286047002.6,P
1611852275.1,286047000.1,N
1611852295.8,286047002.5,N
1611852315.7,286046999.9,N
1611852335.5,286047002.1,N
1611852355.4,286047001.5,N
1611852375.2,286047002.8,N
1611852395.0,286047002.0,N
1611852395.9,286047002.0,N
1611852415.8,286047004.2,Y
1611852435.6,286047000.5,P
1611852455.5,286046999.7,N
1611852475.3,286047000.0,N
1611852495.1,286047000.1,N
1611852515.9,286047002.3,Y
1611852535.7,286047002.2,P
1611852555.5,286047001.5,N
1611852575.4,286047002.5,P
1611852595.2,286047001.5,N
1611852615.1,286047003.7,Y
1611852616.0,286047003.7,P
1611852635.8,286047000.5,N
1611852655.6,286046999.0,N
1611852675.5,286046997.2,N
1611852695.3,286046998.4,N
1611852715.2,286046999.5,N
1611852735.9,286046999.4,N
1611852755.7,286046999.4,N
1611852775.6,286047001.2,N
1611852795.4,286046999.6,N
1611852815.3,286046998.5,N
1611852835.1,286046999.3,N
1611852836.0,286046999.3,N
1611852855.8,286046996.7,N
1611852875.7,286046995.0,Y
1611852895.5,286046997.8,P
1611852915.3,286046998.0,N
1611852935.2,286046998.7,N
1611852955.0,286046997.4,Y
1611852955.9,286046997.4,P
1611852975.8,286046998.9,N
1611852995.6,286046999.1,N
1611853015.4,286046999.4,N
1611853065.3,286046998.6,E
1611853075.2,286046999.8,N
1611853095.1,286046999.9,P
1611853096.0,286046999.9,N
1611853115.8,286047001.1,Y
1611853135.7,286047000.7,P
1611853155.5,286047000.9,N
1611853175.3,286046998.5,P
1611853195.2,286047000.7,N
